This demonstration page uses our WeatherBlox Daily Observations layout. Learn more.

Left ArrowRight Arrow

Hourly Observations for August 17, 2019

Temp ( °F °C ) Dew Point ( °F °C ) Humidity (%) Winds ( mph kmh ) Pressure ( in mb ) Visibility ( mi km ) Precip ( " mm )
12:59 am 00:59 Partly Cloudy 75 23.9 73 22.8 94 94 Calm 30.00 1016 10 16 0.00 0.00
1:59 am 01:59 Mostly Cloudy 74 23.3 72 22.2 94 94 Calm 29.99 1016 10 16 0.00 0.00
2:19 am 02:19 Mostly Cloudy 74 23.3 73 22.8 97 97 SE 3 6 30.00 1016 10 16 0.00 0.00
2:32 am 02:32 Mostly Cloudy 74 23.3 73 22.8 97 97 Calm 29.99 1016 10 16 0.00 0.00
2:36 am 02:36 Partly Cloudy 74 23.3 73 22.8 97 97 Calm 29.99 1016 10 16 0.00 0.00
2:50 am 02:50 Mostly Cloudy 74 23.3 73 22.8 97 97 Calm 29.99 1016 10 16 0.00 0.00
2:59 am 02:59 Mostly Cloudy 74 23.3 73 22.8 97 97 Calm 29.99 1016 10 16 0.00 0.00
3:59 am 03:59 Cloudy 75 23.9 74 23.3 96 96 Calm 29.98 1015 10 16 0.00 0.00
4:59 am 04:59 Cloudy 76 24.4 74 23.3 94 94 WNW 5 7 29.98 1015 10 16 0.00 0.00
5:14 am 05:14 Cloudy 76 24.4 73 22.8 91 91 W 3 6 29.97 1015 10 16 0.00 0.00
5:59 am 05:59 Cloudy 77 25 73 22.8 88 88 W 7 11 29.97 1015 10 16 0.00 0.00
6:59 am 06:59 Cloudy 77 25 73 22.8 88 88 WNW 5 7 29.98 1015 10 16 0.00 0.00
7:59 am 07:59 Mostly Cloudy 78 25.6 73 22.8 85 85 NW 7 11 30.00 1016 10 16 0.00 0.00
8:59 am 08:59 Mostly Cloudy 79 26.1 74 23.3 85 85 W 6 9 30.01 1016 10 16 0.00 0.00
9:16 am 09:16 Mostly Cloudy 79 26.1 74 23.3 85 85 WSW 5 7 30.02 1017 10 16 0.00 0.00
9:59 am 09:59 Mostly Cloudy 81 27.2 75 23.9 82 82 NW 5 7 30.02 1017 10 16 0.00 0.00
10:59 am 10:59 Partly Cloudy 83 28.3 73 22.8 72 72 VRB 3 6 30.02 1017 10 16 0.00 0.00
11:59 am 11:59 Partly Cloudy 85 29.4 73 22.8 68 68 NNW 7 11 30.03 1017 10 16 0.00 0.00
12:59 pm 12:59 Partly Cloudy 85 29.4 75 23.9 72 72 N 6 9 30.04 1017 10 16 0.00 0.00
1:59 pm 13:59 Partly Cloudy 87 30.6 72 22.2 61 61 VRB 3 6 30.01 1016 10 16 0.00 0.00
2:59 pm 14:59 Partly Cloudy 90 32.2 72 22.2 56 56 N 7 11 30.00 1016 10 16 0.00 0.00
3:59 pm 15:59 Mostly Cloudy 87 30.6 73 22.8 63 63 ENE 8 13 30.00 1016 10 16 0.00 0.00
4:59 pm 16:59 Mostly Cloudy 87 30.6 76 24.4 70 70 ENE 6 9 29.99 1016 10 16 0.00 0.00
5:59 pm 17:59 Cloudy 84 28.9 76 24.4 77 77 S 5 7 29.99 1016 10 16 0.00 0.00
6:59 pm 18:59 Mostly Cloudy 83 28.3 76 24.4 79 79 VRB 5 7 29.99 1016 10 16 0.00 0.00
7:59 pm 19:59 Cloudy 82 27.8 76 24.4 82 82 SSW 7 11 29.99 1016 10 16 0.00 0.00
8:59 pm 20:59 Cloudy 81 27.2 76 24.4 85 85 SSW 6 9 29.98 1015 10 16 0.00 0.00
9:59 pm 21:59 Mostly Cloudy 80 26.7 76 24.4 87 87 SSW 6 9 29.99 1016 10 16 0.00 0.00
10:59 pm 22:59 Mostly Cloudy 79 26.1 76 24.4 90 90 S 5 7 30.01 1016 9 14 0.00 0.00
11:59 pm 23:59 Cloudy 79 26.1 75 23.9 88 88 S 6 9 30.03 1017 10 16 0.00 0.00

Powered by AerisWeather